EW8775 Weather Reports


Display with metric or nautical units.
time (UTC)temp
F
wind
direction
speed
MPH
gust
MPH
rain 1hr
in
rain 24hr
in
rain mn
in
humidity
%
barometer
mb
20260506183017 54 315 4.0 15.0 0.00 0.14 0.14 33 1018.7
20260506180017 54 315 4.0 15.0 0.00 0.14 0.14 37 1017.9
20260506173017 53 338 4.0 15.0 0.00 0.14 0.14 39 1017.8
20260506170017 52 315 5.0 16.0 0.00 0.14 0.14 43 1016.9
20260506163017 51 315 6.0 17.0 0.00 0.14 0.14 48 1016.7
20260506160017 48 315 6.0 19.0 0.00 0.14 0.14 50 1016.1
20260506153057 46 180 3.0 12.0 0.00 0.14 0.14 61 1015.7
20260506150017 43 135 2.0 5.0 0.00 0.14 0.14 84 1015.6
20260506143017 41 90 1.0 6.0 0.00 0.14 0.14 90 1015.0
20260506140016 40 135 1.0 4.0 0.00 0.14 0.14 90 1014.8
20260506133056 41 180 2.0 7.0 0.00 0.14 0.14 90 1014.4
20260506130016 41 135 2.0 4.0 0.00 0.14 0.14 89 1013.9
20260506123016 42 113 2.0 7.0 0.00 0.14 0.14 89 1013.7
20260506120016 43 158 2.0 7.0 0.01 0.14 0.14 89 1013.3
20260506113016 44 180 2.0 6.0 0.01 0.14 0.14 90 1013.6
20260506110016 44 203 1.0 4.0 0.00 0.14 0.13 89 1012.6
20260506103056 44 338 1.0 8.0 0.00 0.14 0.13 87 1011.9
20260506100016 45 0.0 3.0 0.11 0.14 0.13 86 1011.8
20260506093016 46 338 5.0 17.0 0.11 0.14 0.13 84 1011.1
20260506090016 48 135 1.0 4.0 0.00 0.03 0.02 79 1010.8
20260506083016 47 113 2.0 6.0 0.00 0.03 0.02 80 1009.6
20260506073056 49 90 2.0 6.0 0.02 0.03 0.02 79 1010.2
20260506043016 49 68 2.0 4.0 0.00 0.02 0.02 64 1007.5
20260506040017 49 90 2.0 4.0 0.00 0.02 0.02 66 1007.3
20260506033017 50 90 2.0 4.0 0.00 0.02 0.02 65 1007.5
20260506030016 51 90 1.0 4.0 0.00 0.02 0.02 63 1007.5
20260506023016 53 203 1.0 6.0 0.00 0.02 0.02 60 1007.5
20260506020016 54 203 3.0 9.0 0.00 0.02 0.02 58 1008.0
20260506013016 56 203 3.0 7.0 0.00 0.02 0.02 56 1008.1
20260506010016 56 203 2.0 8.0 0.00 0.02 0.02 55 1007.9
20260506003016 56 203 2.0 8.0 0.00 0.02 0.02 53 1007.7
20260506000056 58 180 2.0 10.0 0.00 0.02 0.02 51 1008.2
20260505233016 58 203 1.0 9.0 0.00 0.02 0.02 47 1008.0
20260505230016 56 158 1.0 7.0 0.00 0.02 0.02 49 1007.8
20260505223016 55 0.0 2.0 0.00 0.02 0.02 52 1008.2
20260505220016 55 0.0 4.0 0.00 0.02 0.02 54 1008.5
20260505213015 55 203 1.0 5.0 0.00 0.02 0.02 50 1008.6
20260505210015 55 203 2.0 8.0 0.00 0.02 0.02 50 1008.4
20260505203056 54 180 4.0 8.0 0.00 0.02 0.02 57 1008.4
20260505200017 53 158 2.0 7.0 0.00 0.02 0.02 57 1007.9
20260505193057 53 158 3.0 9.0 0.00 0.02 0.02 55 1007.7
20260505190017 52 158 3.0 8.0 0.00 0.02 0.02 60 1008.1